Regional Weather Roundup
Issued by NWS New Orleans/Baton Rouge, LA

Home | Current Version | Previous Version | Graphics & Text | Print | Product List | Glossary On
Versions: 1 2 3 4 5 6 7 8 9 10 11 12 13 14 15 16 17 18 19 20 21 22 23 24 25 26 27 28 29 30 31 32 33 34 35 36 37 38 39 40 41 42 43 44 45 46 47 48 49 50
402
ASUS44 KLIX 230710
RWRLIX
NEW ORLEANS REGIONAL WEATHER ROUNDUP
NATIONAL WEATHER SERVICE NEW ORLEANS LA
200 AM CDT THU OCT 23 2014

NOTE: "FAIR" INDICATES FEW OR NO CLOUDS BELOW 12,000 FEET WITH NO
      SIGNIFICANT WEATHER AND/OR OBSTRUCTIONS TO VISIBILITY.
      SKY/WX - SKY CONDITION AND SIGNIFICANT WEATHER.
      TMP - AIR TEMPERATURE.     DP    - DEWPOINT TEMPERATURE.
      RH  - RELATIVE HUMIDITY.   PRES  - PRESSURE.
      HI  - HEAT INDEX.          WCI   - WIND CHILL INDEX.

*  THESE STATIONS ARE NOT NWS OR FAA STATIONS AND ARE NOT UNDER
   NWS QUALITY CONTROL.

LAZ038-040-048-061>063-065>067-069-230800-
SOUTHEAST LOUISIANA

CITY           SKY/WX    TMP DP  RH WIND       PRES   REMARKS
N.O. AUDUBON     N/A     65  51  59 MISG        N/A
N.O. INTL ARPT CLEAR     66  48  52 E14       30.06F
N.O. LAKEFRONT LGT RAIN  66  51  58 E20       30.07S
N.O. DOWNTOWN*   N/A     64  45  48 NE9       30.07S
SLIDELL        CLEAR     53  48  83 N5        30.07F
BATON ROUGE    CLEAR     54  50  86 CALM      30.10R
BOOTHVILLE     CLEAR     71  57  61 NE12G17   30.04S
BELLE CHASSE   CLEAR     62  52  69 NE8       30.05F
BOGALUSA*        N/A     49  46  90 CALM      30.10F
NEW ROADS*       N/A     55  49  82 N6        30.10S
GONZALES*        N/A     58  53  85 CALM      30.08S
HAMMOND*       CLEAR     55  48  76 N3        30.10S
HOUMA*         CLEAR     59  55  86 N6        30.05F
PORT FOURCHON* SUNNY     70  61  73 NE10      30.06F

$$

MSZ070-080>082-230800-
SOUTHERN MISSISSIPPI

CITY           SKY/WX    TMP DP  RH WIND       PRES   REMARKS
MCCOMB         CLEAR     52  46  80 N5        30.11R
GULFPORT       CLEAR     54  46  74 N6        30.08S
BILOXI         CLEAR     56  47  73 NE5       30.08S
PASCAGOULA     CLEAR     47  45  93 N3        30.07S

$$

COASTAL OBSERVATIONS
LAKE AND NEARSHORE STATIONS

STATION/POSITION TIME  TEMP    WIND        PRES    WAVE
                       AIR SEA DIR/SP/G            HT/PER
                 (UTC) (F)     (DEG/KT/KT) (MB)    (FT/S)
PASCAGOULA       0700   58      30/  9/ 12 1017.5
WAVELAND YACHT   0700   60      40/ 11/ 13 1017.8
GRAND ISLE       0700   70 75   60/ 12/ 15 1017.4
SOUTHWEST PASS   0700   72 82              1016.6
NEW CANAL        0700   67 71   70/ 19/ 22 1018.0
SHELL BEACH      0700   68 68   50/ 18/ 20 1017.4

OFFSHORE STATIONS

STATION/POSITION TIME  TEMP    WIND        PRES    WAVE
                       AIR SEA DIR/SP/G            HT/PER
                 (UTC) (F)     (DEG/KT/KT) (MB)    (FT/S)
64 S DAUPHIN ISL 0628   73 79   50/ 17/ 21 1016.9    5/ 5

$$




USA.gov is the U.S. government's official web portal to all federal, state and local government web resources and services.